Location: Long Geng
(2.6167°N, 114.1333°E)
Time: 19:14:37
(UTC+00:00)

Cosmos 2237 Rocket - Pass Details

Date: 14 May 2021
Orbit: 836 x 848 km, 71.0° (Epoch: 16 June)

Event Time Altitude Azimuth Distance (km) Brightness Sun altitude
Rises 21:02:52 0° 184° (S) 3,404 5.1 -17.3°
Reaches altitude 10° 21:05:24 10° 178° (S) 2,466 4.4 -16.7°
Maximum altitude 21:10:49 47° 105° (ESE) 1,099 3.2 -15.4°
Drops below altitude 10° 21:16:12 10° 32° (NNE) 2,452 5.4 -14.1°
Sets 21:18:43 0° 26° (NNE) 3,382 6.1 -13.6°
